Regional Weather Roundup
Issued by NWS Grand Forks, ND

Home | Current Version | Previous Version | Graphics & Text | Print | Product List | Glossary On
Versions: 1 2 3 4 5 6 7 8 9 10 11 12 13 14 15 16 17 18 19 20 21 22 23 24 25 26 27 28 29 30 31 32 33 34 35 36 37 38 39 40 41 42 43 44 45 46 47 48 49 50
000
ASUS43 KFGF 271610
RWRFGF
PRAIRIE TO PINES  WEATHER ROUNDUP
NATIONAL WEATHER SERVICE EASTERN NORTH DAKOTA/GRAND FORKS ND
1100 AM CDT WED MAY 27 2015

 **SATELLITE DATA USED TO AUGMENT SKY COVER AT AUTOMATED STATIONS**
 *****  WEATHER ACROSS EASTERN NORTH DAKOTA  *****

CITY           SKY/WX    TMP DP  RH WIND       PRES   REMARKS
GRAND FORKS    MOSUNNY   64  47  53 N13       29.95R
GRAND FRKS AFB SUNNY     63  48  57 N10       29.96R
GRAND FRKS NWS   N/A     63 N/A N/A N7          N/A
DEVILS LAKE    SUNNY     63  46  55 E9        29.96S
FARGO          SUNNY     70  53  54 N6        29.94R
WAHPETON ARPT  SUNNY     70  52  52 NW7       29.95R
$$

 ***** WEATHER ACROSS CENTRAL AND WESTERN NORTH DAKOTA  *****

CITY           SKY/WX    TMP DP  RH WIND       PRES   REMARKS
BISMARCK       SUNNY     75  50  41 VRB5      29.97S
MINOT          SUNNY     70  50  49 E6        29.95S
JAMESTOWN      SUNNY     74  49  41 CALM      29.95S
MINOT AFB      MOSUNNY   71  55  58 E8        29.95S
GARRISON         N/A     74  51  44 E7        29.95F
WILLISTON      MOSUNNY   74  49  41 S8        29.93S
DICKINSON      SUNNY     73  51  46 S15       29.94S
HETTINGER      SUNNY     71  52  50 S12       29.97F
$$

 *****  OTHER AIRPORT OBSERVATIONS IN OUR AREA  *****

CITY           SKY/WX    TMP DP  RH WIND       PRES   REMARKS
WALHALLA         N/A     59  45  58 MISG      30.00S
GRAFTON AIRPOR NOT AVBL
VALLEY CITY AR FAIR      73  48  40 CALM      29.95S
CANDO          FAIR      64  46  52 NE12      29.99S
CAVALIER APRT  NOT AVBL
GWINNER        NOT AVBL
SHEYENNE NWR     N/A     73  56  54 N5        29.95
ROLLA          FAIR      57  41  54 NE12      30.01S
 ***** THE ABOVE OBSERVATIONS ARE NON NWS ARE NOT QUALITY
       CONTROLLED AND MAY MIS-REPORT RAIN FOR SNOW...
$$

  *****  WEATHER ACROSS NORTHERN MINNESOTA  *****

CITY           SKY/WX    TMP DP  RH WIND       PRES   REMARKS
FLAG ISLAND    SUNNY     59  46  63 NW13      29.91R
WARROAD        SUNNY     64  52  63 NW8       29.93R
ROSEAU         SUNNY     64  50  59 NW9       29.93R
HALLOCK        MOSUNNY   63  46  55 N10       29.96R
THF RVR FALLS  SUNNY     64  50  59 N7        29.95R
BAUDETTE       SUNNY     63  49  60 NW13      29.91R
WASKISH        MOSUNNY   64  55  72 SW9       29.90S
CROOKSTON      SUNNY     64  48  55 N13       29.95R
STEPHEN NDAWN    N/A     63  48  59 N13         N/A
GREENBUSH NDAW   N/A     63  50  63 N10         N/A
$$
  *****  WEATHER ACROSS CENTRAL AND WEST MINNESOTA  *****

CITY           SKY/WX    TMP DP  RH WIND       PRES   REMARKS
FOSSTON        SUNNY     68  48  49 CALM      29.94S
BEMIDJI        MOSUNNY   70  51  51 N3        29.91S
PARK RAPIDS    SUNNY     75  48  38 N8        29.91R
ELBOW LAKE     FAIR      68  56  64 NW10      29.94R
WADENA         SUNNY     72  55  56 NW5       29.92R
DETROIT LAKES  SUNNY     68  54  60 N8        29.95R
MOORHEAD       SUNNY     68  54  60 N7        29.95R
FERGUS FALLS   SUNNY     70  55  60 NW10      29.95R
MORRIS MN      SUNNY     73  54  49 NW10      29.93S
STAPLES        SUNNY     72  54  53 N5        29.91S
$$
  *****  WEATHER ELSEWHERE ACROSS MINNESOTA  *****

CITY           SKY/WX    TMP DP  RH WIND       PRES   REMARKS
DULUTH         MOSUNNY   75  54  47 W7        29.86R
INTRNTL FALLS  SUNNY     72  51  47 N9        29.86R
ELY            NOT AVBL
CLOQUET        SUNNY     73  54  49 W5        29.87R
WHEATON        SUNNY     72  54  53 NW7       29.96S
BRAINERD       MOSUNNY   69  54  58 VRB5      29.91R
HIBBING        SUNNY     73  52  47 NW8       29.86R
ALEXANDRIA     SUNNY     71  55  56 VRB3      29.95R
SAINT CLOUD    SUNNY     72  57  59 W6        29.91R
MINNEAPOLIS    MOSUNNY   71  56  58 SW13      29.92S
$$

  *****  WEATHER ACROSS SOUTH DAKOTA  *****

CITY           SKY/WX    TMP DP  RH WIND       PRES   REMARKS
SIOUX FALLS    MOSUNNY   77  54  44 CALM      30.01R
BROOKINGS      SUNNY     73  54  49 NW8       30.00R
WATERTOWN      SUNNY     76  52  43 NW10      29.99R
HURON          SUNNY     76  52  43 N6        30.00S
SISSETON         N/A     76  52  43 N13       29.95R
ABERDEEN       SUNNY     79  51  37 NW8       29.97S
MITCHELL       SUNNY     76  53  44 CALM      30.02R
PIERRE         SUNNY     74  53  48 SW7       29.99S
MOBRIDGE       MOSUNNY   73  53  49 S6        29.97S
RAPID CITY     CLOUDY    64  55  72 S10       30.00S
$$

  *****  SOME WEATHER IN NEARBY STATES *****

CITY           SKY/WX    TMP DP  RH WIND       PRES   REMARKS
GLASGOW MT     PTSUNNY   64  54  69 NE8       29.95R
GREAT FALLS MT LGT RAIN  52  49  89 SW10      30.03S
CHEYENNE WY    MOSUNNY   64  39  39 W17       30.10S
SCOTTSBLUFF NE PTSUNNY   63  54  72 S10       30.04S
OMAHA NE       MOSUNNY   72  58  61 S3        30.06S
DES MOINES IA  SUNNY     74  56  53 CALM      30.04R
DAVENPORT IA   MOSUNNY   69  59  70 W16       30.02R
CHICAGO IL     PTSUNNY   69  58  67 W15G23    29.95R
EAU CLAIRE WI  MOSUNNY   68  56  65 SW14      29.93R
LA CROSSE WI   SUNNY     70  55  59 CALM      29.96R
$$

  *****  SOME NATIONAL WEATHER *****

CITY           SKY/WX    TMP DP  RH WIND       PRES   REMARKS
LA GUARDIA NY  CLOUDY    76  63  64 S10       30.17S
RALEIGH NC     PTSUNNY   82  68  62 SW13      30.25F
ATLANTA GA     PTSUNNY   75  65  70 S5        30.26R
NEW ORLEANS LA CLOUDY    83  72  69 S8        30.13F
OKLAHOMA CITY  CLOUDY    77  63  61 S6        30.08F
ALBUQUERQUE NM PTSUNNY   67  43  41 S5        30.18S
SALT LAKE CITY PTSUNNY   58  49  72 W17       30.10R
LOS ANGELES CA CLOUDY    59  54  83 W6        30.02R
BOISE ID       SUNNY     62  49  62 VRB3      30.02R
SEATTLE WA     PTSUNNY   60  52  74 W3        30.09R
$$

*** WEATHER ACROSS MANITOBA...SASKATCHEWAN AND ONTARIO ***
                ***ONTARIO***

CITY           SKY/WX    TMP DP  RH WIND       PRES   REMARKS
GERALDTON      PTSUNNY   57  46  67 NW14G20   29.77R
THUNDER BAY    PTSUNNY   73  55  53 SW8       29.75S
SIOUX LOOKOUT  PTSUNNY   61  41  48 N9G17     29.89R
TORONTO        PTSUNNY   81  61  50 SW16G28   29.97S
BIG TROUT LK   SUNNY     39  23  52 N6        30.05R
PICKLE LAKE    PTSUNNY   45  34  65 N9G18     29.95R
DRYDEN         SUNNY     61  46  59 N10       29.89R
KENORA         MOSUNNY   61  46  59 N7        29.93R
$$
                *** MANITOBA***

CITY           SKY/WX    TMP DP  RH WIND       PRES   REMARKS
BRANDON        CLOUDY    54  39  58 E14       30.05R
DAUPHIN        MOSUNNY   52  39  62 NE12G17   30.08F
ISLAND LAKE    MOSUNNY   46  21  36 N6        30.12R
PILOT MOUND      N/A     52  43  71 NE10        N/A
THE PAS        MOSUNNY   54 N/A N/A MISG      30.13S
THOMPSON       MOSUNNY   50  23  34 N12       30.11F
WINNIPEG       PTSUNNY   57  43  58 N15G23    30.02R
LYNN LAKE      PTSUNNY   50  23  34 VRB5      30.10F
CHURCHILL      CLOUDY    30  25  80 N13       30.15R WCI  20
GILLAM         PTSUNNY   41  27  56 NW12      30.12R
$$
                ***SASKATCHEWAN***

CITY           SKY/WX    TMP DP  RH WIND       PRES   REMARKS
ESTEVAN        CLOUDY    61  46  59 E16G24    29.97F
KINDERSLEY     PTSUNNY   57  48  72 E8        30.00F
LLOYDMINSTER   MOSUNNY   61  45  55 S10       30.01F
PRINCE ALBERT  PTSUNNY   54  37  54 E9        30.07F
REGINA         PTSUNNY   63  48  59 E14       30.00S
YORKTON        PTSUNNY   50  41  71 E10       30.06S
N. BATTLEFORD  SUNNY     59  39  47 SE10      30.05F
LA RONGE       MOSUNNY   54  37  54 SE10      30.07F
SASKATOON      MOSUNNY   55  43  62 E8        30.05F
SWIFT CURRENT  MOSUNNY   64  50  59 E14       29.97R
$$
NOTE: THESE ARE AUTOMATED STATIONS WITH LIMITED QUALITY CONTROL
      "FAIR" INDICATES FEW OR NO CLOUDS BELOW 12,000 FEET WITH NO
      SIGNIFICANT WEATHER AND/OR OBSTRUCTIONS TO VISIBILITY.
      SKY/WX - SKY CONDITION AND SIGNIFICANT WEATHER.
      TMP - AIR TEMPERATURE.    DP   - DEWPOINT TEMPERATURE.
      RH  - RELATIVE HUMIDITY.  PRES - PRESSURE.
      HX  - HEAT INDEX.         WCI  - WIND CHILL INDEX.
$


USA.gov is the U.S. government's official web portal to all federal, state and local government web resources and services.